FENGYUN 1C DEB

Satellite information

Favourite Embed

Satellite Type and Status

DEBRISIN ORBIT

Key statistics

Satellite FENGYUN 1C DEB at a glance.

Uptime

9494

Days in orbit

Revolutions

≈ 13.9

Per day

Orbit

SSO

Sun Synchronous Orbit

Inclination

99.0

Latest

Satellite identification and parameters

Extended collection of information and parameters for FENGYUN 1C DEB.

Object identification

Identified? True

Debris? True

Object name: FENGYUN 1C DEB

International designator: 1999-025CHE

Object number (NORAD): 31816

Object ID (CCSDS): 31816

Country: PEOPLES REPUBLIC OF CHINA (PRC)

Current information (Y/N): Y

RCS size: SMALL

Orbital parameters

Period: 103.338 minutes

Inclination: 98.9688 deg

SMA: 7294.585 km

Apoapsis: 1004.521 km

Periapsis: 828.378 km

RAAN: 246.8724 deg

Eccentricy: 0.0120736

Argument of periapsis: 38.9172 deg

Mean anomaly: 16.9527 deg

Mean motion: 13.93483786 rev/day

Mean motion (dot): 0.00001537 rev/day2

B* drag term: 0.0011345 1/REarth

Two-line elements (TLE)

Creation date: May 7, 2025, 3:14 a.m.

Reference frame: TEME

Reference center: EARTH

Epoch: May 6, 2025, 7:24 a.m. UTC

TLE line 0: 0 FENGYUN 1C DEB

TLE line 1: 1 31816U 99025CHE 25126.30878291 .00001537 00000-0 11345-2 0 9990

TLE line 2: 2 31816 98.9688 246.8724 0120736 38.9172 16.9527 13.93483786906233

Live tracking on map

Real-time ground track for satellite FENGYUN 1C DEB.

In-orbit conjunctions

A list of the most updated potential collisions computed for object FENGYUN 1C DEB.

Target Orbit TCA Probability of collision Miss distance Type
SL-8 R/B LEO 2024-11-15 04:06:23 0.0001420465 226.0 (m) ROCKET BODY
FENGYUN 1C DEB SSO 2024-11-12 05:15:51 0.0002744706 192.0 (m) DEBRIS
SL-11 R/B MEO 2024-07-16 14:25:22 0.000145493 564.0 (m) ROCKET BODY
SL-14 R/B LEO 2024-06-30 11:59:04 0.0001892348 368.0 (m) ROCKET BODY
FENGYUN 1C DEB SSO 2024-06-23 15:12:16 0.0001349041 241.0 (m) DEBRIS

Associated space launch

Chinese polar orbiting meteorological satellite

FENGYUN 1C DEB was lifted into orbit during the mission ‘Long March 4B | Feng Yun 1C’, on board a Long March 4B space rocket.

The launch took place on May 10, 1999, 1:33 a.m. from Launch Complex 7.

For more information about the launch, click the button.

Launch to space Long March 4B | Feng Yun 1C
Long March 4B | Feng Yun 1C

Agency: N/A

Status: Launch Successful

Launch date: May 10, 1999, 1:33 a.m. UTC

Rocket: Long March 4B

Launch pad: Launch Complex 7

Location: Taiyuan Satellite Launch Center, People's Republic of China

...

Latest news about this satellite

There are no fresh news available about this satellite. Check back as we update our databases every day.


Newsletter sign-up

Weekly statistics, charts and insights to help you stay on top of the space industry.